Time,TemperatureF,DewpointF,PressureIn,WindDirection,WindDirectionDegrees,WindSpeedMPH,WindSpeedGustMPH,Humidity,HourlyPrecipIn,Conditions,Clouds,dailyrainin,SoftwareType,DateUTC
2013-10-21 00:02:00,54.9,51.0,29.93,SE,143,0.0,0.0,85,0.00,,,0.00,weatherlink.com 1.10,2013-10-21 05:02:00,
2013-10-21 00:17:00,54.9,51.0,29.93,SE,143,0.0,0.0,86,0.00,,,0.00,weatherlink.com 1.10,2013-10-21 05:17:00,
2013-10-21 00:32:00,55.3,51.0,29.93,SE,143,0.0,0.0,86,0.00,,,0.00,weatherlink.com 1.10,2013-10-21 05:32:00,
2013-10-21 00:47:00,54.2,50.0,29.93,SE,143,0.0,0.0,85,0.00,,,0.00,weatherlink.com 1.10,2013-10-21 05:47:00,
2013-10-21 01:02:00,54.4,51.0,29.93,SE,143,0.0,0.0,87,0.00,,,0.00,weatherlink.com 1.10,2013-10-21 06:02:00,
2013-10-21 01:17:00,53.7,50.0,29.93,SE,143,0.0,0.0,87,0.00,,,0.00,weatherlink.com 1.10,2013-10-21 06:17:00,
2013-10-21 01:33:00,53.3,50.0,29.93,SE,142,0.0,0.0,87,0.00,,,0.00,weatherlink.com 1.10,2013-10-21 06:33:00,
2013-10-21 01:48:00,53.0,50.0,29.92,SE,143,0.0,0.0,88,0.00,,,0.00,weatherlink.com 1.10,2013-10-21 06:48:00,
2013-10-21 02:03:00,52.5,49.0,29.93,SE,143,0.0,0.0,88,0.00,,,0.00,weatherlink.com 1.10,2013-10-21 07:03:00,
2013-10-21 02:18:00,52.3,49.0,29.93,SE,143,0.0,0.0,89,0.00,,,0.00,weatherlink.com 1.10,2013-10-21 07:18:00,
2013-10-21 02:33:00,52.4,49.0,29.93,SE,143,0.0,0.0,89,0.00,,,0.00,weatherlink.com 1.10,2013-10-21 07:33:00,
2013-10-21 02:48:00,51.9,49.0,29.93,SE,142,0.0,0.0,89,0.00,,,0.00,weatherlink.com 1.10,2013-10-21 07:48:00,
2013-10-21 03:03:00,52.0,49.0,29.93,SE,142,0.0,0.0,90,0.00,,,0.00,weatherlink.com 1.10,2013-10-21 08:03:00,
2013-10-21 03:18:00,52.9,50.0,29.93,SE,142,0.0,0.0,90,0.00,,,0.00,weatherlink.com 1.10,2013-10-21 08:18:00,
2013-10-21 03:33:00,53.1,50.0,29.93,SE,143,0.0,0.0,90,0.00,,,0.00,weatherlink.com 1.10,2013-10-21 08:33:00,
2013-10-21 03:48:00,53.3,51.0,29.93,SE,143,0.0,0.0,90,0.00,,,0.00,weatherlink.com 1.10,2013-10-21 08:48:00,
2013-10-21 04:03:00,52.9,50.0,29.93,SE,143,0.0,0.0,90,0.00,,,0.00,weatherlink.com 1.10,2013-10-21 09:03:00,
2013-10-21 04:18:00,52.3,50.0,29.93,SE,143,0.0,0.0,90,0.00,,,0.00,weatherlink.com 1.10,2013-10-21 09:18:00,
2013-10-21 04:33:00,53.5,51.0,29.92,SE,143,0.0,0.0,90,0.00,,,0.00,weatherlink.com 1.10,2013-10-21 09:33:00,
2013-10-21 04:48:00,53.3,51.0,29.94,SE,142,0.0,0.0,90,0.00,,,0.00,weatherlink.com 1.10,2013-10-21 09:48:00,
2013-10-21 05:03:00,52.8,50.0,29.95,SE,143,0.0,0.0,90,0.00,,,0.00,weatherlink.com 1.10,2013-10-21 10:03:00,
2013-10-21 05:18:00,52.7,50.0,29.95,SE,142,0.0,0.0,90,0.00,,,0.00,weatherlink.com 1.10,2013-10-21 10:18:00,
2013-10-21 05:33:00,52.6,50.0,29.96,SE,142,0.0,0.0,90,0.00,,,0.00,weatherlink.com 1.10,2013-10-21 10:33:00,
2013-10-21 05:48:00,52.2,49.0,29.96,SE,143,0.0,0.0,90,0.00,,,0.00,weatherlink.com 1.10,2013-10-21 10:48:00,
2013-10-21 06:03:00,51.9,49.0,29.96,SE,142,0.0,0.0,90,0.00,,,0.00,weatherlink.com 1.10,2013-10-21 11:03:00,
2013-10-21 06:18:00,52.1,50.0,29.96,SE,143,0.0,0.0,91,0.00,,,0.00,weatherlink.com 1.10,2013-10-21 11:18:00,
2013-10-21 06:33:00,51.7,49.0,29.97,SE,143,0.0,0.0,90,0.00,,,0.00,weatherlink.com 1.10,2013-10-21 11:33:00,
2013-10-21 06:48:00,51.1,49.0,29.98,SE,142,0.0,0.0,91,0.00,,,0.00,weatherlink.com 1.10,2013-10-21 11:48:00,
2013-10-21 07:03:00,50.3,48.0,29.98,SE,143,0.0,0.0,91,0.00,,,0.00,weatherlink.com 1.10,2013-10-21 12:03:00,
2013-10-21 07:18:00,50.9,48.0,29.98,SE,143,0.0,0.0,91,0.00,,,0.00,weatherlink.com 1.10,2013-10-21 12:18:00,
2013-10-21 07:33:00,51.5,49.0,29.99,SE,143,0.0,0.0,91,0.00,,,0.00,weatherlink.com 1.10,2013-10-21 12:33:00,
2013-10-21 07:48:00,51.9,49.0,29.99,SE,143,0.0,0.0,91,0.00,,,0.00,weatherlink.com 1.10,2013-10-21 12:48:00,
2013-10-21 08:03:00,52.5,50.0,29.98,SE,143,0.0,0.0,92,0.00,,,0.00,weatherlink.com 1.10,2013-10-21 13:03:00,
2013-10-21 08:18:00,52.8,51.0,29.99,SE,142,0.0,0.0,92,0.00,,,0.00,weatherlink.com 1.10,2013-10-21 13:18:00,
2013-10-21 08:33:00,52.8,51.0,30.00,SE,142,0.0,0.0,92,0.00,,,0.00,weatherlink.com 1.10,2013-10-21 13:33:00,
2013-10-21 08:48:00,53.0,51.0,30.00,SE,143,0.0,0.0,92,0.00,,,0.00,weatherlink.com 1.10,2013-10-21 13:48:00,
2013-10-21 09:03:00,53.5,51.0,30.00,SE,142,0.0,0.0,92,0.00,,,0.00,weatherlink.com 1.10,2013-10-21 14:03:00,
2013-10-21 09:18:00,54.2,52.0,30.01,SE,143,0.0,0.0,92,0.00,,,0.00,weatherlink.com 1.10,2013-10-21 14:18:00,
2013-10-21 09:33:00,55.2,53.0,30.01,SE,143,0.0,0.0,92,0.00,,,0.00,weatherlink.com 1.10,2013-10-21 14:33:00,
2013-10-21 09:48:00,56.4,54.0,30.01,SE,142,0.0,0.0,92,0.00,,,0.00,weatherlink.com 1.10,2013-10-21 14:48:00,
2013-10-21 10:03:00,57.8,55.0,30.02,SE,142,0.0,0.0,91,0.00,,,0.00,weatherlink.com 1.10,2013-10-21 15:03:00,
2013-10-21 10:18:00,59.0,56.0,30.02,SE,142,0.0,0.0,90,0.00,,,0.00,weatherlink.com 1.10,2013-10-21 15:18:00,
2013-10-21 10:33:00,60.0,57.0,30.02,SE,143,0.0,0.0,89,0.00,,,0.00,weatherlink.com 1.10,2013-10-21 15:33:00,
2013-10-21 10:48:00,61.4,58.0,30.02,SE,143,0.0,0.0,87,0.00,,,0.00,weatherlink.com 1.10,2013-10-21 15:48:00,
2013-10-21 11:03:00,63.0,57.0,30.02,SE,143,0.0,0.0,82,0.00,,,0.00,weatherlink.com 1.10,2013-10-21 16:03:00,
2013-10-21 11:19:00,64.0,57.0,30.02,SE,143,0.0,0.0,79,0.00,,,0.00,weatherlink.com 1.10,2013-10-21 16:19:00,
2013-10-21 11:34:00,64.9,57.0,30.03,SE,143,0.0,3.0,76,0.00,,,0.00,weatherlink.com 1.10,2013-10-21 16:34:00,
2013-10-21 11:49:00,65.5,58.0,30.03,SE,142,0.0,2.0,76,0.00,,,0.00,weatherlink.com 1.10,2013-10-21 16:49:00,
2013-10-21 12:04:00,65.2,57.0,30.04,WNW,302,0.0,6.0,75,0.00,,,0.00,weatherlink.com 1.10,2013-10-21 17:04:00,
2013-10-21 12:19:00,65.4,58.0,30.04,NW,304,1.0,6.0,76,0.00,,,0.00,weatherlink.com 1.10,2013-10-21 17:19:00,
2013-10-21 12:34:00,66.3,58.0,30.04,West,275,0.0,2.0,75,0.00,,,0.00,weatherlink.com 1.10,2013-10-21 17:34:00,
2013-10-21 12:49:00,66.5,58.0,30.04,NW,309,1.0,4.0,74,0.00,,,0.00,weatherlink.com 1.10,2013-10-21 17:49:00,
2013-10-21 13:04:00,66.7,58.0,30.04,NW,310,0.0,2.0,73,0.00,,,0.00,weatherlink.com 1.10,2013-10-21 18:04:00,
2013-10-21 13:34:00,66.2,57.0,30.04,NW,306,0.0,4.0,72,0.00,,,0.00,weatherlink.com 1.10,2013-10-21 18:34:00,
2013-10-21 13:49:00,65.2,56.0,30.04,WNW,295,2.0,6.0,72,0.00,,,0.00,weatherlink.com 1.10,2013-10-21 18:49:00,
2013-10-21 14:04:00,65.0,56.0,30.03,WNW,290,0.0,3.0,73,0.00,,,0.00,weatherlink.com 1.10,2013-10-21 19:04:00,
2013-10-21 14:19:00,64.8,56.0,30.03,West,278,0.0,2.0,74,0.00,,,0.00,weatherlink.com 1.10,2013-10-21 19:19:00,
2013-10-21 14:34:00,64.7,56.0,30.03,NW,306,0.0,3.0,73,0.00,,,0.00,weatherlink.com 1.10,2013-10-21 19:34:00,
2013-10-21 14:49:00,64.3,56.0,30.03,WNW,303,0.0,4.0,74,0.00,,,0.00,weatherlink.com 1.10,2013-10-21 19:49:00,
2013-10-21 15:04:00,63.9,55.0,30.03,NW,309,0.0,1.0,74,0.00,,,0.00,weatherlink.com 1.10,2013-10-21 20:04:00,
2013-10-21 15:19:00,63.9,56.0,30.04,NNW,346,0.0,5.0,76,0.00,,,0.00,weatherlink.com 1.10,2013-10-21 20:19:00,
2013-10-21 15:34:00,63.2,56.0,30.04,NNE,13,0.0,10.0,76,0.00,,,0.00,weatherlink.com 1.10,2013-10-21 20:34:00,
2013-10-21 15:49:00,62.8,55.0,30.05,NNE,17,0.0,9.0,75,0.00,,,0.00,weatherlink.com 1.10,2013-10-21 20:49:00,
2013-10-21 16:04:00,62.8,55.0,30.05,North,360,0.0,10.0,75,0.00,,,0.00,weatherlink.com 1.10,2013-10-21 21:04:00,
2013-10-21 16:19:00,63.1,55.0,30.06,NNE,19,0.0,7.0,74,0.00,,,0.00,weatherlink.com 1.10,2013-10-21 21:19:00,
2013-10-21 16:34:00,63.1,55.0,30.06,NNE,14,1.0,5.0,75,0.00,,,0.00,weatherlink.com 1.10,2013-10-21 21:34:00,
2013-10-21 16:49:00,63.1,55.0,30.06,NNE,17,3.0,6.0,75,0.00,,,0.00,weatherlink.com 1.10,2013-10-21 21:49:00,
2013-10-21 17:04:00,63.2,55.0,30.07,NW,322,0.0,5.0,74,0.00,,,0.00,weatherlink.com 1.10,2013-10-21 22:04:00,
2013-10-21 17:19:00,63.1,55.0,30.07,NNE,22,0.0,8.0,75,0.00,,,0.00,weatherlink.com 1.10,2013-10-21 22:19:00,
2013-10-21 17:34:00,63.0,55.0,30.07,NNE,14,0.0,7.0,74,0.00,,,0.00,weatherlink.com 1.10,2013-10-21 22:34:00,
2013-10-21 17:49:00,63.0,55.0,30.07,NNE,14,0.0,7.0,74,0.00,,,0.00,weatherlink.com 1.10,2013-10-21 22:49:00,
2013-10-21 18:04:00,63.0,55.0,30.08,North,5,0.0,2.0,74,0.00,,,0.00,weatherlink.com 1.10,2013-10-21 23:04:00,
2013-10-21 18:19:00,62.8,54.0,30.08,NNE,13,0.0,6.0,73,0.00,,,0.00,weatherlink.com 1.10,2013-10-21 23:19:00,
2013-10-21 18:34:00,62.6,54.0,30.08,NNE,22,5.0,8.0,73,0.00,,,0.00,weatherlink.com 1.10,2013-10-21 23:34:00,
2013-10-21 18:49:00,62.5,54.0,30.09,NNE,28,0.0,7.0,73,0.00,,,0.00,weatherlink.com 1.10,2013-10-21 23:49:00,
2013-10-21 19:04:00,62.2,53.0,30.09,NNE,24,0.0,4.0,73,0.00,,,0.00,weatherlink.com 1.10,2013-10-22 00:04:00,
2013-10-21 19:19:00,61.4,53.0,30.10,NNE,12,0.0,1.0,74,0.00,,,0.00,weatherlink.com 1.10,2013-10-22 00:19:00,
2013-10-21 19:34:00,60.5,53.0,30.11,NNE,24,0.0,1.0,76,0.00,,,0.00,weatherlink.com 1.10,2013-10-22 00:34:00,
2013-10-21 19:49:00,59.8,53.0,30.11,North,5,0.0,2.0,77,0.00,,,0.00,weatherlink.com 1.10,2013-10-22 00:49:00,
2013-10-21 20:04:00,59.0,52.0,30.12,NNE,15,0.0,4.0,78,0.00,,,0.00,weatherlink.com 1.10,2013-10-22 01:04:00,
2013-10-21 20:19:00,58.8,52.0,30.12,NNE,19,0.0,1.0,78,0.00,,,0.00,weatherlink.com 1.10,2013-10-22 01:19:00,
2013-10-21 20:34:00,58.0,52.0,30.13,NNE,18,0.0,5.0,79,0.00,,,0.00,weatherlink.com 1.10,2013-10-22 01:34:00,
2013-10-21 20:49:00,57.5,51.0,30.13,NNE,22,0.0,5.0,80,0.00,,,0.00,weatherlink.com 1.10,2013-10-22 01:49:00,
2013-10-21 21:04:00,57.1,51.0,30.14,NNE,17,0.0,5.0,80,0.00,,,0.00,weatherlink.com 1.10,2013-10-22 02:04:00,
2013-10-21 21:19:00,56.9,51.0,30.14,NNE,26,0.0,1.0,80,0.00,,,0.00,weatherlink.com 1.10,2013-10-22 02:19:00,
2013-10-21 21:34:00,56.7,51.0,30.14,NNE,19,0.0,5.0,80,0.00,,,0.00,weatherlink.com 1.10,2013-10-22 02:34:00,
2013-10-21 21:49:00,56.4,50.0,30.15,NNE,19,0.0,0.0,80,0.00,,,0.00,weatherlink.com 1.10,2013-10-22 02:49:00,
2013-10-21 22:05:00,56.0,50.0,30.16,NNE,18,0.0,0.0,80,0.00,,,0.00,weatherlink.com 1.10,2013-10-22 03:05:00,
2013-10-21 22:20:00,55.4,50.0,30.16,NNE,19,0.0,0.0,81,0.00,,,0.00,weatherlink.com 1.10,2013-10-22 03:20:00,
2013-10-21 22:35:00,54.5,49.0,30.17,NNE,18,0.0,0.0,82,0.00,,,0.00,weatherlink.com 1.10,2013-10-22 03:35:00,
2013-10-21 22:50:00,52.1,47.0,30.18,NNE,18,0.0,0.0,82,0.00,,,0.00,weatherlink.com 1.10,2013-10-22 03:50:00,
2013-10-21 23:05:00,50.5,46.0,30.18,NNE,18,0.0,0.0,85,0.00,,,0.00,weatherlink.com 1.10,2013-10-22 04:05:00,
2013-10-21 23:20:00,50.4,46.0,30.18,NNE,18,0.0,0.0,86,0.00,,,0.00,weatherlink.com 1.10,2013-10-22 04:20:00,
2013-10-21 23:35:00,50.2,47.0,30.18,NNE,18,0.0,0.0,87,0.00,,,0.00,weatherlink.com 1.10,2013-10-22 04:35:00,
2013-10-21 23:50:00,49.7,46.0,30.19,NNE,18,0.0,0.0,88,0.00,,,0.00,weatherlink.com 1.10,2013-10-22 04:50:00,